• In Latvia
  • List of Countries
  • For 7 days
  • Water Temperature
  • Satellite Maps
  • Weather Map
  • Weather Widgets
  • user-avatar
    Login

    Hourly Weather Seli

    Today, 18 February, Sunday

    Time Temperature Precipitation Wind Pressure Humidity
    00:00 +10°C° 0 mm 5 mps 752 mmHg 81%
    01:00 +10°C° 0 mm 5 mps 752 mmHg 81%
    02:00 +11°C° 0 mm 4 mps 752 mmHg 81%
    03:00 +10°C° 0 mm 4 mps 752 mmHg 82%
    04:00 +10°C° 0 mm 4 mps 752 mmHg 83%
    05:00 +10°C° 0 mm 4 mps 752 mmHg 83%
    06:00 +11°C° 0 mm 3 mps 752 mmHg 82%
    07:00 +11°C° 0 mm 3 mps 752 mmHg 81%
    08:00 +11°C° 0 mm 3 mps 752 mmHg 80%
    09:00 +13°C° 0 mm 3 mps 752 mmHg 73%
    10:00 +14°C° 0 mm 3 mps 751 mmHg 66%
    11:00 +17°C° 0 mm 2 mps 751 mmHg 58%
    12:00 +17°C° 0 mm 3 mps 751 mmHg 56%
    13:00 +18°C° 0 mm 3 mps 751 mmHg 54%
    14:00 +18°C° 0 mm 3 mps 751 mmHg 52%
    15:00 +18°C° 0 mm 3 mps 750 mmHg 55%
    16:00 +18°C° 0 mm 3 mps 750 mmHg 58%
    17:00 +17°C° 0 mm 3 mps 750 mmHg 61%
    18:00 +16°C° 0 mm 3 mps 750 mmHg 67%
    19:00 +14°C° 0 mm 3 mps 750 mmHg 73%
    20:00 +12°C° 0 mm 3 mps 750 mmHg 78%
    21:00 +12°C° 0 mm 3 mps 750 mmHg 79%
    22:00 +12°C° 0 mm 3 mps 750 mmHg 80%
    23:00 +12°C° 0 mm 3 mps 750 mmHg 80%

    Tomorrow, 19 February, Monday

    Time Temperature Precipitation Wind Pressure Humidity
    00:00 +12°C° 0 mm 3 mps 750 mmHg 80%
    01:00 +12°C° 0 mm 3 mps 749 mmHg 79%
    02:00 +11°C° 0 mm 3 mps 749 mmHg 78%
    03:00 +11°C° 0 mm 3 mps 749 mmHg 79%
    04:00 +11°C° 0 mm 3 mps 749 mmHg 79%
    05:00 +10°C° 0 mm 3 mps 748 mmHg 80%
    06:00 +11°C° 0 mm 3 mps 748 mmHg 78%
    07:00 +12°C° 0 mm 3 mps 748 mmHg 75%
    08:00 +12°C° 0 mm 3 mps 748 mmHg 73%
    09:00 +13°C° 0 mm 3 mps 748 mmHg 68%
    10:00 +14°C° 0 mm 3 mps 749 mmHg 64%
    11:00 +16°C° 0 mm 3 mps 749 mmHg 59%
    12:00 +16°C° 0 mm 3 mps 749 mmHg 59%
    13:00 +16°C° 0 mm 3 mps 748 mmHg 59%
    14:00 +16°C° 0 mm 3 mps 748 mmHg 60%
    15:00 +16°C° 0 mm 3 mps 748 mmHg 62%
    16:00 +16°C° 0 mm 3 mps 748 mmHg 64%
    17:00 +15°C° 0 mm 2 mps 748 mmHg 66%
    18:00 +14°C° 0.1 mm 2 mps 748 mmHg 70%
    19:00 +13°C° 0.1 mm 2 mps 748 mmHg 75%
    20:00 +12°C° 0.1 mm 2 mps 748 mmHg 80%
    21:00 +12°C° 0.1 mm 2 mps 748 mmHg 81%
    22:00 +12°C° 0.1 mm 2 mps 748 mmHg 82%
    23:00 +12°C° 0.1 mm 2 mps 748 mmHg 83%

    Day after tomorrow, 20 February, Tuesday

    Time Temperature Precipitation Wind Pressure Humidity
    00:00 +12°C° 0.1 mm 2 mps 748 mmHg 82%
    01:00 +11°C° 0.1 mm 3 mps 748 mmHg 82%
    02:00 +10°C° 0.1 mm 3 mps 748 mmHg 82%
    03:00 +10°C° 0.1 mm 3 mps 747 mmHg 83%
    04:00 +10°C° 0.1 mm 3 mps 747 mmHg 84%
    05:00 +10°C° 0.1 mm 3 mps 747 mmHg 84%
    06:00 +10°C° 0.1 mm 3 mps 747 mmHg 84%
    07:00 +11°C° 0.1 mm 3 mps 747 mmHg 84%
    08:00 +11°C° 0.1 mm 3 mps 747 mmHg 83%
    09:00 +12°C° 0.2 mm 3 mps 747 mmHg 81%
    10:00 +13°C° 0.2 mm 3 mps 747 mmHg 78%
    11:00 +13°C° 0.2 mm 3 mps 748 mmHg 76%
    12:00 +15°C° 0.1 mm 2 mps 747 mmHg 74%
    13:00 +15°C° 0.1 mm 2 mps 747 mmHg 72%
    14:00 +16°C° 0.1 mm 2 mps 746 mmHg 70%
    15:00 +15°C° 0 mm 2 mps 746 mmHg 72%
    16:00 +15°C° 0 mm 2 mps 746 mmHg 74%
    17:00 +15°C° 0 mm 2 mps 745 mmHg 76%
    18:00 +14°C° 0 mm 2 mps 745 mmHg 80%
    19:00 +13°C° 0 mm 2 mps 745 mmHg 83%
    20:00 +12°C° 0 mm 3 mps 745 mmHg 87%
    21:00 +11°C° 0 mm 3 mps 745 mmHg 86%
    22:00 +11°C° 0 mm 3 mps 745 mmHg 86%
    23:00 +11°C° 0 mm 3 mps 745 mmHg 85%

    21 February, Wednesday

    Time Temperature Precipitation Wind Pressure Humidity
    00:00 +11°C° 0.3 mm 3 mps 745 mmHg 87%
    01:00 +12°C° 0.3 mm 3 mps 745 mmHg 88%
    02:00 +12°C° 0.3 mm 3 mps 744 mmHg 90%
    03:00 +12°C° 0.3 mm 3 mps 744 mmHg 90%
    04:00 +12°C° 0.3 mm 2 mps 743 mmHg 90%
    05:00 +12°C° 0.3 mm 2 mps 743 mmHg 89%
    06:00 +11°C° 0.3 mm 3 mps 743 mmHg 87%
    07:00 +12°C° 0.3 mm 3 mps 743 mmHg 84%
    08:00 +12°C° 0.3 mm 3 mps 742 mmHg 82%
    09:00 +13°C° 0.1 mm 3 mps 742 mmHg 79%
    10:00 +14°C° 0.1 mm 4 mps 742 mmHg 77%
    11:00 +15°C° 0.1 mm 4 mps 742 mmHg 74%
    12:00 +17°C° 0.2 mm 4 mps 742 mmHg 70%
    13:00 +17°C° 0.2 mm 4 mps 741 mmHg 66%
    14:00 +18°C° 0.2 mm 4 mps 741 mmHg 62%
    15:00 +17°C° 0.2 mm 4 mps 740 mmHg 64%
    16:00 +17°C° 0.2 mm 3 mps 740 mmHg 66%
    17:00 +16°C° 0.2 mm 3 mps 740 mmHg 67%
    18:00 +14°C° 0 mm 3 mps 740 mmHg 72%
    19:00 +14°C° 0 mm 4 mps 740 mmHg 76%
    20:00 +13°C° 0 mm 4 mps 741 mmHg 81%
    21:00 +12°C° 0 mm 4 mps 741 mmHg 83%
    22:00 +12°C° 0 mm 4 mps 741 mmHg 84%
    23:00 +12°C° 0 mm 4 mps 741 mmHg 86%

    22 February, Thursday

    Time Temperature Precipitation Wind Pressure Humidity
    00:00 +12°C° 0 mm 4 mps 741 mmHg 86%
    01:00 +12°C° 0 mm 4 mps 741 mmHg 87%
    02:00 +12°C° 0 mm 3 mps 741 mmHg 88%
    03:00 +11°C° 0 mm 3 mps 741 mmHg 88%
    04:00 +11°C° 0 mm 3 mps 741 mmHg 89%
    05:00 +10°C° 0 mm 3 mps 740 mmHg 90%
    06:00 +11°C° 0 mm 3 mps 741 mmHg 89%
    07:00 +11°C° 0 mm 3 mps 741 mmHg 88%
    08:00 +12°C° 0 mm 3 mps 741 mmHg 86%
    09:00 +13°C° 0 mm 3 mps 741 mmHg 81%
    10:00 +15°C° 0 mm 2 mps 741 mmHg 75%
    11:00 +16°C° 0 mm 2 mps 741 mmHg 69%
    12:00 +16°C° 0.2 mm 2 mps 741 mmHg 67%
    13:00 +17°C° 0.2 mm 3 mps 741 mmHg 65%
    14:00 +17°C° 0.2 mm 3 mps 741 mmHg 63%
    15:00 +17°C° 0.2 mm 4 mps 741 mmHg 64%
    16:00 +15°C° 0.2 mm 4 mps 741 mmHg 65%
    17:00 +15°C° 0.2 mm 4 mps 741 mmHg 67%
    18:00 +14°C° 0 mm 4 mps 742 mmHg 72%
    19:00 +13°C° 0 mm 4 mps 742 mmHg 77%
    20:00 +12°C° 0 mm 4 mps 742 mmHg 82%
    21:00 +12°C° 0 mm 4 mps 743 mmHg 83%
    22:00 +12°C° 0 mm 4 mps 743 mmHg 84%
    23:00 +11°C° 0 mm 4 mps 743 mmHg 86%

    23 February, Friday

    Time Temperature Precipitation Wind Pressure Humidity
    00:00 +11°C° 0 mm 4 mps 743 mmHg 85%
    01:00 +11°C° 0 mm 4 mps 743 mmHg 84%
    02:00 +11°C° 0 mm 4 mps 743 mmHg 83%
    03:00 +11°C° 0 mm 4 mps 743 mmHg 83%
    04:00 +10°C° 0 mm 4 mps 743 mmHg 83%
    05:00 +10°C° 0 mm 4 mps 743 mmHg 83%
    06:00 +11°C° 0 mm 4 mps 743 mmHg 82%
    07:00 +11°C° 0 mm 4 mps 743 mmHg 81%
    08:00 +12°C° 0 mm 4 mps 743 mmHg 81%
    09:00 +13°C° 0 mm 4 mps 743 mmHg 76%
    10:00 +14°C° 0 mm 5 mps 744 mmHg 72%
    11:00 +15°C° 0 mm 5 mps 744 mmHg 68%
    12:00 +15°C° 0 mm 5 mps 744 mmHg 68%
    13:00 +16°C° 0 mm 6 mps 743 mmHg 67%
    14:00 +16°C° 0 mm 6 mps 743 mmHg 67%
    15:00 +16°C° 0 mm 6 mps 743 mmHg 68%
    16:00 +15°C° 0 mm 6 mps 743 mmHg 69%
    17:00 +15°C° 0 mm 6 mps 743 mmHg 70%
    18:00 +14°C° 0 mm 6 mps 743 mmHg 75%
    19:00 +13°C° 0 mm 6 mps 744 mmHg 80%
    20:00 +12°C° 0 mm 5 mps 744 mmHg 85%
    21:00 +11°C° 0 mm 6 mps 744 mmHg 86%
    22:00 +11°C° 0 mm 6 mps 745 mmHg 86%
    23:00 +10°C° 0 mm 6 mps 745 mmHg 87%
    Show more